Content
SEND FEEDBACK

Daily
Averages
Monthly
Summary
Mexico

PUEBLA - JARDINES DE SAN MANUEL, PUEBLA


Home > North America > Mexico > Puebla
Elevation: 6962 feet     Latitude: 19 00N     Longitude: 098 11W

WEATHER
 
SELECT A DAY
Number of Records: 121,122;   Date Range: 1/1/95 - 8/31/14
 
SHARE

PRINT THIS DATA

[ ← Previous Day ]
WEATHER ALMANAC - FEBRUARY 1, 2013
[ Next Day → ]
[ °C ]   °F
Weather ElementAverageHighLow
Temperature61.2 °F77 °F (12:40 pm)39.2 °F (7:42 am)
Dewpoint35.9 °F45 °F (2:55 am)24.8 °F (11:49 am)
Humidity44.1 %87 % (5:58 am)14 % (12:40 pm)
Barometer30.24 in30.41 in (8:50 am)29.77 in (5:50 pm)
Wind Speed7 mph18.4 mph (5:50 pm)
Weather ElementAverage
Visibility7.6 mi
Wind DirectionSSW (217 °)

Weather ElementTotal
Precipitation---
Heating Degree Days6.9 (Base 65)
Growing Degree Days8.1 (Base 50)
Averaged from 25 records on February 1, 2013
WEATHER CONDITIONS BREAKOUT
WIND DIRECTION BREAKOUT
WEATHER BY HOUR - FEBRUARY 1, 2013
[ °C ]   °F
Local TimeTemperatureDewpointHumidityBarometerVisibilityWind DirectionWind SpeedGust SpeedPrecipitationEventsConditions
2:55 AM48.0 °F45.0 °F84 %29.99 in3.0 miCalm
5:56 AM42.8 °F35.6 °F76 %30.37 in8.0 miNNW (340°)6.9 mphScattered Clouds
5:58 AM43.0 °F40.0 °F87 %30.03 in3.0 miCalm
6:49 AM41.0 °F33.8 °F76 %30.38 in8.0 miNNW (330°)8.1 mphScattered Clouds
7:42 AM39.2 °F33.8 °F81 %30.39 in8.0 miNNW (330°)8.1 mphScattered Clouds
8:50 AM53.6 °F35.6 °F51 %30.41 in8.0 miNorth (350°)5.8 mphPartly Cloudy
8:50 AM50.0 °F40.0 °F60 %30.14 in6.0 miENE (60°)2.2 mphHaze
9:48 AM62.6 °F35.6 °F37 %30.40 in8.0 miNorth (360°)5.8 mphPartly Cloudy
10:44 AM71.6 °F28.4 °F20 %30.40 in8.0 miNorth (350°)6.9 mphClear
11:49 AM75.2 °F24.8 °F15 %30.37 in8.0 miNorth (360°)5.8 mphClear
11:50 AM72.0 °F37.0 °F18 %30.08 in6.0 miSSE (150°)2.2 mphHaze
12:40 PM77.0 °F24.8 °F14 %30.34 in8.0 miNNW (330°)6.9 mphClear
1:41 PM77.0 °F33.8 °F21 %30.30 in8.0 miSSE (150°)13.8 mphClear
2:42 PM77.0 °F33.8 °F21 %30.29 in8.0 miSouth (180°)11.5 mphClear
2:50 PM77.0 °F38.0 °F15 %29.89 in12.0 miESE (120°)4.5 mph
3:40 PM75.2 °F33.8 °F22 %30.27 in8.0 miSSE (160°)15.0 mphClear
4:50 PM73.4 °F33.8 °F23 %30.27 in8.0 miSSW (200°)13.8 mphClear
5:50 PM72.0 °F36.0 °F17 %29.77 in12.0 miESE (120°)2.2 mph
5:50 PM69.8 °F33.8 °F27 %30.29 in8.0 miSSW (200°)18.4 mphClear
6:41 PM64.4 °F33.8 °F32 %30.31 in8.0 miSouth (180°)9.2 mphClear
7:44 PM59.0 °F42.8 °F55 %30.34 in8.0 miSSE (160°)6.9 mphClear
8:47 PM53.6 °F42.8 °F67 %30.38 in8.0 miSSE (160°)6.9 mphClear
8:50 PM58.0 °F39.0 °F37 %29.79 in3.0 miENE (60°)2.2 mph
9:43 PM50.0 °F41.0 °F71 %30.40 in8.0 miSE (140°)5.8 mphClear
10:41 PM48.2 °F41.0 °F76 %30.41 in8.0 miSSW (200°)6.9 mphClear
Hourly data recorded from MMPB, located miles away from Puebla - Jardines de San Manuel, Puebla







STORIES FROM OUR PARTNERS